Jackson, TN

1:44 PM CST on November 13, 2019 (GMT -0600)
McKellar-Sipes Regional

Weather History for KMKL - September, 2019

Change the Weather History Date:

Monday, September 30, 2019

  Actual Average Record
Temperature  
Mean Temperature 80 °F 66 °F  
Max Temperature 93 °F 79 °F 98 °F (1953)
Min Temperature 66 °F 53 °F 35 °F (1949)
Degree Days  
Heating Degree Days 0 3  
Month to date heating degree days 25  
Since 1 July heating degree days 26  
Cooling Degree Days 14 4  
Month to date cooling degree days 220  
Year to date cooling degree days 1643  
Growing Degree Days 30 (Base 50)    
Moisture  
Dew Point 69 °F    
Average Humidity 76    
Maximum Humidity 97    
Minimum Humidity 45    
Precipitation  
Precipitation 0.00 in 0.13 in 1.92 in (1985)
Month to date precipitation 3.38  
Year to date precipitation 39.25  
Sea Level Pressure  
Sea Level Pressure 30.10 in    
Wind  
Wind Speed 2 mph ()    
Max Wind Speed 6 mph    
Max Gust Speed -    
Visibility 8.8 miles    
Events      
T = Trace of Precipitation, MM = Missing Value Source: Averaged Metar Reports

Daily Weather History Graph

Daily Weather History Graph

Search for Another Location

Airport or City:

Astronomy

Sep. 30, 2019 Rise Set
Actual Time 6:49 AM CDT 6:41 PM CDT
Civil Twilight 6:24 AM CDT 7:06 PM CDT
Nautical Twilight 5:54 AM CDT 7:36 PM CDT
Astronomical Twilight 5:24 AM CDT 8:05 PM CDT
Moon 8:50 AM CDT (9/30) 8:21 PM CDT (9/30)
Length of Visible Light 12h 42m
Length of Day
11h 51m
Waxing Crescent, 6% of the Moon is Illuminated
Sep 30
Waxing Crescent
Oct 5
First Quarter
Oct 13
Full
Oct 21
Last Quarter
Oct 27
New

Hourly Weather History & Observations

Time (CDT) Temp. Heat Index Dew Point Humidity Pressure Visibility Wind Dir Wind Speed Gust Speed Precip Events Conditions
12:53 AM 70.0 °F - 69.1 °F 97% 30.10 in 6.0 mi Calm Calm - N/A   Clear
1:53 AM 70.0 °F - 69.1 °F 97% 30.10 in 6.0 mi Calm Calm - N/A   Clear
2:53 AM 69.1 °F - 68.0 °F 96% 30.10 in 5.0 mi Calm Calm - N/A   Clear
4:53 AM 68.0 °F - 66.9 °F 96% 30.11 in 4.0 mi Calm Calm - N/A   Clear
5:53 AM 68.0 °F - 66.0 °F 93% 30.12 in 5.0 mi Calm Calm - N/A   Clear
6:53 AM 66.0 °F - 64.9 °F 96% 30.13 in 10.0 mi Calm Calm - N/A   Clear
7:53 AM 71.1 °F - 70.0 °F 96% 30.14 in 10.0 mi Calm Calm - N/A   Clear
8:53 AM 79.0 °F - 71.1 °F 77% 30.15 in 10.0 mi South 4.6 mph - N/A   Clear
9:53 AM 84.9 °F 89.4 °F 70.0 °F 61% 30.16 in 10.0 mi SW 4.6 mph - N/A   Clear
10:53 AM 88.0 °F 92.1 °F 69.1 °F 53% 30.17 in 10.0 mi Variable 3.5 mph - N/A   Clear
11:53 AM 90.0 °F 95.4 °F 70.0 °F 52% 30.15 in 10.0 mi SSW 4.6 mph - N/A   Scattered Clouds
12:53 PM 91.0 °F 96.6 °F 70.0 °F 50% 30.13 in 10.0 mi Variable 5.8 mph - N/A   Scattered Clouds
1:53 PM 91.0 °F 96.6 °F 70.0 °F 50% 30.10 in 10.0 mi SW 5.8 mph - N/A   Scattered Clouds
2:53 PM 93.0 °F 97.9 °F 69.1 °F 45% 30.08 in 10.0 mi SSW 5.8 mph - N/A   Mostly Cloudy
3:53 PM 91.9 °F 96.9 °F 69.1 °F 47% 30.07 in 10.0 mi SSW 5.8 mph - N/A   Partly Cloudy
4:53 PM 93.0 °F 97.9 °F 69.1 °F 45% 30.06 in 10.0 mi South 4.6 mph - N/A   Clear
5:53 PM 90.0 °F 94.5 °F 69.1 °F 50% 30.04 in 10.0 mi South 3.5 mph - N/A   Clear
6:53 PM 80.1 °F 83.8 °F 72.0 °F 76% 30.05 in 8.0 mi Calm Calm - N/A   Clear
7:53 PM 75.0 °F - 71.1 °F 87% 30.05 in 10.0 mi South 3.5 mph - N/A   Clear
8:53 PM 73.9 °F - 72.0 °F 93% 30.05 in 10.0 mi SSW 3.5 mph - N/A   Clear
9:53 PM 73.9 °F - 72.0 °F 93% 30.06 in 10.0 mi Calm Calm - N/A   Clear
10:53 PM 72.0 °F - 70.0 °F 93% 30.06 in 10.0 mi Calm Calm - N/A   Clear
11:53 PM 70.0 °F - 69.1 °F 97% 30.05 in 8.0 mi Calm Calm - N/A   Clear